Flag for Germany Weather past 2 weeks in Viersen, North Rhine-Westphalia, Germany

Now
54 °F

Sprinkles. Partly sunny.


Feels Like: 47 °F
Forecast: 39 / 46 °F
Wind: 25 mph from West

Location: Monchengladbach Airport

Current Time: Mar 31, 2015 at 10:49:45 AM

Latest Report: Mar 31, 2015 at 10:20 AM


Visibility: N/A

Pressure: 29.42 "Hg

Humidity: 58%

Dew point: 39 °F

Location of ViersenLocation

Historic Weather in Viersen — Graph

°F

Viersen temperature yesterday

Maximum temperature yesterday: 48 °F (at 11:20 AM)
Minimum temperature yesterday: 43 °F (at 12:20 PM)
Average temperature yesterday: 47 °F

Past Weeks' High & Low Weather Summary

 TemperatureHumidityPressure
High64 °F (Mar 17, 3:20 PM)100% (Mar 16, 8:20 AM)30.39 "Hg (Mar 16, 8:20 AM)
Low32 °F (Mar 17, 7:20 AM)34% (Mar 17, 3:20 PM)29.27 "Hg (Mar 29, 7:50 PM)
Average47 °F78%30.00 "Hg
* Reported Mar 16 8:20 AM — Mar 31 9:20 AM, Viersen, Weather by CustomWeather, © 2015

Note: Actual official high and low records may vary slightly from our data, if they occured in-between our weather recording intervals... More about our weather records

Advertising

Viersen weather history for previous 24 hours

 ConditionsComfort  
Time TempWeatherWind HumidityBarometerVisibility
9:20 AM
Tue, Mar 31
52 °FScattered clouds.21 mph77%29.39 "HgN/A
8:50 AM52 °FLight rain. Partly sunny.22 mph88%29.36 "Hg5 mi
8:20 AM50 °FLight rain. Fog.17 mph94%29.33 "Hg3 mi
7:50 AM52 °FLight rain. Partly sunny.22 mph88%29.30 "Hg5 mi
7:50 PM
Mon, Mar 30
46 °FPassing clouds.10 mph50%29.83 "HgN/A
7:20 PM46 °FPassing clouds.12 mph50%29.86 "HgN/A
6:50 PM48 °FClear.16 mph40%29.83 "Hg10 mi
6:20 PM48 °FPassing clouds.13 mph46%29.83 "HgN/A
5:50 PM48 °FClear.21 mph43%29.83 "Hg10 mi
5:20 PM48 °FPassing clouds.20 mph46%29.83 "HgN/A
4:50 PM48 °FPassing clouds.22 mph50%29.80 "HgN/A
4:20 PM48 °FPassing clouds.20 mph50%29.80 "HgN/A
3:50 PM48 °FPassing clouds.18 mph54%29.77 "HgN/A
3:20 PM46 °FPassing clouds.22 mph53%29.77 "HgN/A
2:50 PM48 °FPassing clouds.18 mph54%29.74 "HgN/A
2:20 PM48 °FPassing clouds.20 mph62%29.74 "HgN/A
1:50 PM46 °FPassing clouds.16 mph66%29.71 "HgN/A
1:20 PM46 °FPassing clouds.21 mph66%29.68 "HgN/A
12:50 PM46 °FScattered showers. Passing clouds.29 mph71%29.68 "HgN/A
12:20 PM43 °FScattered showers. Passing clouds.20 mph76%29.68 "HgN/A
11:50 AM46 °FScattered showers. Scattered clouds.29 mph57%29.65 "HgN/A
11:20 AM48 °FScattered clouds.21 mph58%29.65 "HgN/A
10:50 AM46 °FScattered clouds.21 mph62%29.62 "HgN/A
10:20 AM46 °FScattered clouds.20 mph62%29.62 "HgN/A
Weather by CustomWeather, © 2015

See weather overviewHow to use our weather pages